Location: Heiligenberg
(48.5381°N, 7.3897°E)
Time: 02:29:56
(UTC+00:00)

Cosmos 2074 Rocket - Pass Details

Date: 26 May 2022
Orbit: 968 x 985 km, 82.9° (Epoch: 26 June)

Event Time Altitude Azimuth Distance (km) Brightness Sun altitude
Rises 01:19:32 0° 350° (N) 3,700 7.9 -16.0°
Reaches altitude 10° 01:22:04 10° 350° (N) 2,750 7.1 -15.8°
Maximum altitude 01:28:23 88° 266° (W) 993 4.0 -15.3°
Enters shadow 01:34:00 14° 174° (S) 2,480 5.7 -14.8°
